This is the latest recevied weather packets stored in our database for station/object NE8U. If no packets are shown the sender has not sent any weather packets the latest 10 day(s).
| Time | Temp. | Humidity | Pressure | Rain* | Wind** | Luminosity | Snow |
|---|---|---|---|---|---|---|---|
| 1777962340 | 15° C | 93% | 1016.4 hPa | 1.27 mm | - | 0 W/m² | - |
| 1777962037 | 15° C | 92% | 1016.3 hPa | 1.27 mm | - | 0 W/m² | - |
| 1777961735 | 15° C | 92% | 1016.4 hPa | 1.78 mm | - | 0 W/m² | - |
| 1777961432 | 15° C | 92% | 1016.4 hPa | 1.78 mm | - | 0 W/m² | - |
| 1777961130 | 15° C | 92% | 1016.4 hPa | 0 mm | - | 0 W/m² | - |
| 1777960826 | 15° C | 91% | 1016.3 hPa | 0 mm | - | 0 W/m² | - |
| 1777960521 | 15° C | 91% | 1016.3 hPa | 0 mm | - | 0 W/m² | - |
| 1777960218 | 15° C | 91% | 1016 hPa | 0 mm | - | 0 W/m² | - |
| 1777959916 | 15° C | 91% | 1016 hPa | 1.27 mm | - | 0 W/m² | - |
| 1777959614 | 15° C | 91% | 1015.9 hPa | 1.78 mm | - | 0 W/m² | - |
| 1777959311 | 15° C | 91% | 1016.2 hPa | 1.78 mm | - | 0 W/m² | - |
| 1777959008 | 15° C | 91% | 1016.2 hPa | 0 mm | - | 0 W/m² | - |
| 1777958705 | 15° C | 92% | 1016.4 hPa | 0 mm | - | 0 W/m² | - |
| 1777958402 | 14.44° C | 92% | 1016.4 hPa | 0 mm | - | 0 W/m² | - |
| 1777958098 | 14.44° C | 93% | 1016.3 hPa | 0 mm | - | 0 W/m² | - |
| 1777957797 | 14.44° C | 92% | 1016.2 hPa | 0 mm | - | 0 W/m² | - |
| 1777957495 | 14.44° C | 92% | 1016.3 hPa | 1.27 mm | - | 0 W/m² | - |
| 1777957192 | 14.44° C | 92% | 1016.3 hPa | 0 mm | - | 0 W/m² | - |
| 1777956888 | 14.44° C | 92% | 1016 hPa | 0 mm | - | 0 W/m² | - |
| 1777956585 | 14.44° C | 92% | 1016.4 hPa | 1.78 mm | - | 0 W/m² | - |
| 1777956283 | 13.89° C | 92% | 1016.4 hPa | 1.78 mm | - | 0 W/m² | - |
| 1777955978 | 13.89° C | 92% | 1016.4 hPa | 0 mm | - | 0 W/m² | - |
| 1777955675 | 13.89° C | 91% | 1016.3 hPa | 1.27 mm | - | 0 W/m² | - |
| 1777955372 | 13.89° C | 90% | 1016.3 hPa | 1.27 mm | - | 0 W/m² | - |
| 1777955068 | 13.89° C | 88% | 1016.6 hPa | 0 mm | - | 0 W/m² | - |
* Rain latest hour (hover to see other rain measurements)
** Current wind speed in m/s (hover to see current wind gust speed)